TimeCST,TemperatureF,Dew PointF,Humidity,Sea Level PressureIn,VisibilityMPH,Wind Direction,Wind SpeedMPH,Gust SpeedMPH,PrecipitationIn,Events,Conditions,WindDirDegrees,DateUTC
12:53 AM,35.1,19.9,54,30.12,10.0,NNW,13.8,26.5,N/A,,Scattered Clouds,340,2012-12-26 06:53:00
1:53 AM,34.0,19.0,54,30.12,10.0,NNW,16.1,-,N/A,,Partly Cloudy,330,2012-12-26 07:53:00
2:53 AM,33.1,19.9,59,30.14,10.0,NNW,17.3,27.6,N/A,,Partly Cloudy,340,2012-12-26 08:53:00
3:53 AM,32.0,19.0,59,30.14,10.0,North,18.4,25.3,N/A,,Partly Cloudy,350,2012-12-26 09:53:00
4:53 AM,30.9,18.0,59,30.14,10.0,NNW,25.3,32.2,N/A,,Partly Cloudy,340,2012-12-26 10:53:00
5:53 AM,30.2,17.6,60,30.20,10.0,NNW,10.4,18.4,N/A,,Scattered Clouds,340,2012-12-26 11:53:00
6:53 AM,28.9,17.1,61,30.18,10.0,North,17.3,23.0,N/A,,Scattered Clouds,350,2012-12-26 12:53:00
7:53 AM,28.9,17.1,61,30.22,10.0,North,8.1,-,N/A,,Scattered Clouds,350,2012-12-26 13:53:00
8:53 AM,32.0,17.1,54,30.25,10.0,NNW,9.2,-,N/A,,Scattered Clouds,340,2012-12-26 14:53:00
9:53 AM,35.1,17.1,48,30.27,10.0,North,4.6,-,N/A,,Mostly Cloudy,10,2012-12-26 15:53:00
10:53 AM,37.9,18.0,45,30.25,10.0,North,9.2,-,N/A,,Mostly Cloudy,350,2012-12-26 16:53:00
11:53 AM,41.0,18.0,40,30.22,10.0,North,4.6,-,N/A,,Mostly Cloudy,360,2012-12-26 17:53:00
12:53 PM,46.0,18.0,33,30.19,10.0,North,5.8,-,N/A,,Mostly Cloudy,10,2012-12-26 18:53:00
1:53 PM,48.0,18.0,30,30.14,10.0,Variable,4.6,-,N/A,,Mostly Cloudy,0,2012-12-26 19:53:00
2:53 PM,48.0,18.0,30,30.12,10.0,Calm,Calm,-,N/A,,Mostly Cloudy,0,2012-12-26 20:53:00
3:53 PM,50.0,18.0,28,30.10,10.0,Calm,Calm,-,N/A,,Mostly Cloudy,0,2012-12-26 21:53:00
4:53 PM,48.9,18.0,29,30.09,10.0,East,3.5,-,N/A,,Mostly Cloudy,80,2012-12-26 22:53:00
5:53 PM,44.1,19.9,38,30.08,10.0,East,5.8,-,N/A,,Mostly Cloudy,90,2012-12-26 23:53:00
6:53 PM,42.1,21.0,43,30.10,10.0,East,6.9,-,N/A,,Mostly Cloudy,100,2012-12-27 00:53:00
7:53 PM,39.9,19.0,43,30.13,10.0,East,6.9,-,N/A,,Mostly Cloudy,90,2012-12-27 01:53:00
8:53 PM,39.0,19.9,46,30.12,10.0,ENE,6.9,-,N/A,,Mostly Cloudy,70,2012-12-27 02:53:00
9:53 PM,37.0,19.9,50,30.12,10.0,ENE,4.6,-,N/A,,Mostly Cloudy,60,2012-12-27 03:53:00
10:53 PM,34.0,19.9,56,30.12,10.0,East,3.5,-,N/A,,Mostly Cloudy,90,2012-12-27 04:53:00
11:53 PM,33.1,19.9,59,30.10,10.0,Calm,Calm,-,N/A,,Mostly Cloudy,0,2012-12-27 05:53:00